Location: Newark
(40.7066°N, 111.8219°W)
Time: 12:09:24
(UTC+00:00)

S-56A Canister/Altair - All Passes

Search period start: 12 November 2019 00:00
Search period end: 22 November 2019 00:00
Orbit: 634 x 2498 km, 38.9° (Epoch: 11 November)

Date Brightness Start Highest point End Pass type
(mag) Time Alt. Az. Time Alt. Az. Time Alt. Az.
12 Nov - 01:34:03 10° SSW 01:40:24 27° SSE 01:45:09 10° E visible
12 Nov - 03:37:57 10° WSW 03:44:07 60° SSE 03:48:45 10° E visible
12 Nov - 05:42:41 10° W 05:47:38 68° S 05:52:02 10° ESE night (unlit)
12 Nov - 07:46:58 10° W 07:50:49 29° SSW 07:54:57 10° SE night (unlit)
13 Nov - 01:01:03 10° SSW 01:07:41 26° SSE 01:12:38 10° E visible
13 Nov - 03:04:51 10° WSW 03:11:31 57° SSE 03:16:20 10° E visible
13 Nov - 05:09:49 10° W 05:15:06 71° S 05:19:32 10° E visible
13 Nov - 07:14:17 10° W 07:18:21 33° SSW 07:22:28 10° SE night (unlit)
14 Nov - 00:28:02 10° SSW 00:34:55 24° SSE 00:40:05 10° E visible
14 Nov - 02:31:40 10° WSW 02:38:54 54° SSE 02:43:57 10° E visible
14 Nov - 04:36:52 10° W 04:42:35 73° S 04:47:06 10° E visible
14 Nov - 06:41:33 10° W 06:45:53 37° SSW 06:50:01 10° SE night (unlit)
14 Nov - 23:55:02 10° SSW 00:02:06 23° SSE 00:07:28 10° E daylight
15 Nov - 01:58:25 10° SW 02:06:13 52° SSE 02:11:34 10° E visible
15 Nov - 04:03:48 10° W 04:10:01 75° S 04:14:41 10° E visible
15 Nov - 06:08:44 10° W 06:13:24 43° SSW 06:17:36 10° SE night (unlit)
15 Nov - 08:15:21 10° SW 08:16:16 11° SW 08:17:12 10° SSW night (unlit)
15 Nov - 23:22:02 10° SSW 23:29:15 22° SSE 23:34:48 10° ESE daylight
16 Nov - 01:25:07 10° SW 01:33:30 49° SSE 01:39:10 10° E visible
16 Nov - 03:30:38 10° W 03:37:25 75° S 03:42:18 10° E visible
16 Nov - 05:35:51 10° W 05:40:56 49° SSW 05:45:13 10° SE night (unlit)
16 Nov - 07:41:44 10° WSW 07:43:46 13° SW 07:45:48 10° S night (unlit)
16 Nov - 22:49:05 10° S 22:56:21 20° SSE 23:02:02 10° ESE daylight
17 Nov - 00:51:47 10° SW 01:00:43 47° SSE 01:06:45 10° E visible
17 Nov - 02:57:22 10° W 03:04:47 75° S 03:09:55 10° E visible
17 Nov - 05:02:53 10° W 05:08:25 55° SSW 05:12:50 10° ESE visible
17 Nov - 07:08:31 10° WSW 07:11:17 16° SW 07:13:58 10° S night (unlit)
17 Nov - 22:16:13 10° S 22:23:23 19° SE 22:29:09 10° ESE daylight
18 Nov - 00:18:23 10° SW 00:27:53 45° SSE 00:34:19 10° E daylight
18 Nov - 02:24:01 10° WSW 02:32:06 74° S 02:37:33 10° E visible
18 Nov - 04:29:49 10° W 04:35:54 61° SSW 04:40:28 10° ESE visible
18 Nov - 06:35:23 10° W 06:38:49 19° SW 06:42:00 10° SSE night (unlit)
18 Nov - 21:43:27 10° S 21:50:24 17° SE 21:56:07 10° ESE daylight
18 Nov - 23:44:59 10° SW 23:55:00 43° SSE 00:01:49 10° E daylight
19 Nov - 01:50:34 10° WSW 01:59:22 72° S 02:05:10 10° E visible
19 Nov - 03:56:39 10° W 04:03:20 67° SSW 04:08:08 10° ESE visible
19 Nov - 06:02:17 10° W 06:06:22 23° SSW 06:09:57 10° SSE night (unlit)
19 Nov - 21:10:50 10° S 21:17:22 16° SE 21:22:55 10° ESE daylight
19 Nov - 23:11:34 10° SW 23:22:03 41° SSE 23:29:18 10° E daylight
20 Nov - 01:17:04 10° WSW 01:26:35 70° S 01:32:47 10° E visible
20 Nov - 03:23:23 10° W 03:30:42 71° S 03:35:47 10° ESE visible
20 Nov - 05:29:10 10° W 05:33:54 28° SSW 05:37:50 10° SSE night (unlit)
20 Nov - 20:38:28 10° SSE 20:44:19 14° SE 20:49:26 10° ESE daylight
20 Nov - 22:38:11 10° SW 22:49:03 38° SSE 22:56:42 10° E daylight
21 Nov - 00:43:29 10° WSW 00:53:44 68° SSE 01:00:23 10° E visible
21 Nov - 02:50:01 10° W 02:58:02 75° S 03:03:26 10° ESE visible
21 Nov - 04:56:01 10° W 05:01:26 34° SSW 05:05:41 10° SE visible
21 Nov - 20:06:28 10° SSE 20:11:14 13° SE 20:15:34 10° ESE daylight
21 Nov - 22:04:50 10° SSW 22:15:59 36° SSE 22:24:02 10° E daylight
